[[{"header":{"parameterUnit":"m.s-1","parameterCategory":2,"la1":30.2991,"la2":30.254,"lo1":-89.0895,"lo2":-89.0444,"dy":0.0017,"dx":0.0017,"nx":28,"ny":28,"refTime":"2024-12-02T03:00:00:Z","depth":"0","parameterNumber":2,"parameterNumberName":"U-component_of_CURRENTS"},"data":[0,0,0,0,0,0,0,0,0,0,0,0,0,0,0,0,0,0,0,0,0,0,0,0,0,0,0,0,0,0,0,0,0,0,0,0,0,0,0,0,0,0,0,0,0,0,0,0,0,0,0,0,0,0,0,0,0,0,0.2567,0.2567,0,0.2548,0.2547,0.2547,0.2513,0.2513,0.2513,0.2512,0.248,0.2479,0.2479,0,0,0,0,0,0,0,0,0,0,0,0,0,0.2587,0.2586,0.2567,0.2567,0.2567,0.2548,0.2547,0.2547,0.2514,0.2513,0.2513,0.2512,0.248,0.2479,0.2479,0,0,0,0,0,0,0,0,0,0,0,0,0,0.2572,0.2586,0.2567,0.255,0.2548,0.2548,0.2547,0.2547,0.2514,0.2513,0.2512,0.2512,0.248,0.2479,0.2479,0.2486,0,0,0.2476,0.2476,0,0,0,0,0,0,0,0,0.2573,0.2571,0.2552,0.2551,0.2549,0.2534,0.2542,0.2527,0.2514,0.2524,0.2512,0.2512,0.2499,0.2497,0.2491,0.2485,0.2483,0.2476,0.2476,0.2476,0.2475,0,0,0,0,0,0,0,0.2574,0.2571,0.2557,0.2553,0.2551,0.2547,0.2544,0.2539,0.2513,0.2523,0.2521,0.2523,0.2497,0.2492,0.249,0.2483,0.2476,0.2476,0.2475,0.2475,0.2513,0.2515,0,0,0,0,0,0,0.2581,0.2572,0.2558,0.2557,0.2562,0.2548,0.2544,0.2538,0.2513,0.251,0.2524,0.2522,0.2493,0.2491,0.2489,0.2519,0.2476,0.2475,0.2474,0.2512,0.2514,0.2515,0,0,0,0,0,0,0.2581,0.2579,0.2558,0.2566,0.2564,0.2548,0.2542,0.2538,0.2536,0.2514,0.251,0.2527,0.2493,0.249,0.2494,0.2517,0.2475,0.2474,0.251,0.2512,0.2514,0.2565,0,0,0,0,0,0,0.2582,0.2579,0.258,0.2567,0.2564,0.2565,0.2542,0.2538,0.2539,0.2536,0.2516,0.2511,0.2492,0.2496,0.2494,0.2515,0.2473,0.2508,0.2511,0.2514,0.2562,0.2569,0.2575,0,0,0,0,0,0.2582,0.2583,0.258,0.2579,0.2564,0.2566,0.2564,0.2549,0.254,0.2544,0.2533,0.2512,0.2512,0.2496,0.2493,0.2515,0.2507,0.251,0.2513,0.2559,0.2568,0.2575,0,0,0,0,0,0,0.259,0.2579,0.2576,0.2573,0.2575,0.2561,0.2563,0.2557,0.2551,0.2549,0.2525,0.2521,0.2537,0.2522,0.2506,0.2537,0.2508,0.2511,0.2544,0.2552,0.2559,0.2569,0.2473,0,0,0,0,0,0.2595,0.2591,0.2587,0.2586,0.2588,0.258,0.2579,0.2573,0.2566,0.2562,0.2549,0.2543,0.2549,0.2546,0.2545,0.2557,0.2564,0.2573,0.258,0.2585,0.2594,0.2636,0.2647,0.2526,0.2526,0.2526,0,0,0.2595,0.2592,0.2588,0.2588,0.2586,0.2595,0.2577,0.2582,0.2591,0.2561,0.2568,0.2566,0.2559,0.2575,0.2581,0.2563,0.2623,0.2589,0.2594,0.26,0.2641,0.2652,0.2663,0.2528,0.2528,0.2527,0,0,0.26,0.2596,0.2598,0.2605,0.2611,0.261,0.2617,0.2612,0.2611,0.2622,0.261,0.2625,0.2618,0.2625,0.2627,0.2672,0.266,0.2671,0.2707,0.2748,0.2759,0.2768,0.2787,0.2798,0.267,0.2671,0.2671,0,0.2605,0.2604,0.2601,0.2613,0.2621,0.2621,0.2633,0.2638,0.2636,0.2649,0.2631,0.2658,0.2646,0.2684,0.2696,0.2688,0.2701,0.2674,0.2757,0.2766,0.2775,0.2793,0.2804,0.2673,0.2673,0.2673,0.2673,0,0.2613,0.2619,0.2624,0.2637,0.2649,0.2659,0.2671,0.2685,0.2686,0.2696,0.2731,0.2725,0.2744,0.2746,0.2729,0.2789,0.2775,0.2763,0.2735,0.279,0.2805,0.2816,0.2677,0.2676,0.2676,0.2675,0,0,0.26,0.2623,0.2625,0.2634,0.2662,0.2667,0.2701,0.2729,0.2758,0.2768,0.2806,0.2821,0.2829,0.2832,0.2825,0.2853,0.2916,0.2833,0.2833,0.2849,0.2998,0.2962,0.2969,0.2921,0.2923,0.2925,0.2982,0,0.2606,0.2624,0.2641,0.2664,0.2673,0.2699,0.273,0.2762,0.279,0.283,0.2851,0.2882,0.286,0.2871,0.2903,0.2917,0.2947,0.2901,0.2945,0.2946,0.2905,0.2982,0.2867,0.2908,0.2992,0.2994,0.2995,0,0.2604,0.2617,0.2636,0.2672,0.268,0.27,0.2754,0.2785,0.2855,0.2884,0.2936,0.2949,0.3001,0.2967,0.3035,0.3007,0.301,0.3014,0.3016,0.2973,0.293,0.2868,0.2923,0.2875,0.3011,0.301,0.3009,0,0.2575,0.2611,0.2622,0.2634,0.2679,0.2698,0.2728,0.2798,0.2839,0.2922,0.2964,0.3029,0.306,0.3091,0.3101,0.3074,0.3168,0.3131,0.3104,0.31,0.3007,0.2991,0.3018,0.3185,0.3185,0.3185,0.3185,0,0.2563,0.2572,0.2607,0.261,0.2637,0.2679,0.2728,0.2778,0.2865,0.2923,0.2985,0.3044,0.3094,0.3144,0.3142,0.3166,0.3208,0.3131,0.3126,0.302,0.3006,0.2961,0.2938,0.3187,0.3187,0.3186,0.3186,0,0.2525,0.2547,0.2562,0.2605,0.2619,0.2638,0.2717,0.2757,0.2849,0.2928,0.2956,0.3075,0.3147,0.3184,0.3242,0.3217,0.3154,0.323,0.3094,0.3072,0.2979,0.2962,0.2874,0.277,0.3208,0.3208,0.3208,0,0.2502,0.2505,0.2545,0.2552,0.2569,0.2608,0.2638,0.2736,0.2786,0.294,0.2971,0.3083,0.3146,0.3233,0.3227,0.3237,0.3144,0.3121,0.305,0.2982,0.296,0.2844,0.2753,0.2943,0.2941,0.2939,0.2937,0,0.2465,0.2481,0.2493,0.2509,0.2529,0.2559,0.2608,0.2645,0.2762,0.2836,0.2933,0.3001,0.3114,0.3098,0.3138,0.3126,0.2979,0.308,0.305,0.2799,0.2634,0.2527,0.2888,0.2919,0.2921,0.2922,0.2923,0.2924,0.2435,0.2433,0.2447,0.2456,0.2475,0.2479,0.2476,0.2544,0.2604,0.2685,0.2819,0.2891,0.2969,0.302,0.2988,0.2898,0.2867,0.28,0.2799,0.2698,0.2554,0.2874,0.2874,0.2875,0.2876,0.2877,0.2878,0,0.2385,0.2384,0.2392,0.2384,0.2365,0.2404,0.2429,0.2412,0.243,0.2565,0.2631,0.2721,0.2735,0.2782,0.2752,0.2642,0.2492,0.2566,0.2384,0.2316,0.2649,0.2595,0.2484,0.2484,0.2484,0.2484,0.2484,0.2484,0.2358,0.2334,0.233,0.2268,0.2259,0.2198,0.2187,0.2186,0.2252,0.2301,0.2368,0.2458,0.2634,0.2689,0.2596,0.2507,0.2298,0.2187,0.2173,0.2441,0.2462,0.2482,0.2427,0.2283,0.2282,0.1717,0.1713,0.171]},{"header":{"parameterUnit":"m.s-1","parameterCategory":2,"la1":30.2991,"la2":30.254,"lo1":-89.0895,"lo2":-89.0444,"dy":0.0017,"dx":0.0017,"nx":28,"ny":28,"refTime":"2024-12-02T03:00:00:Z","depth":"0","parameterNumber":3,"parameterNumberName":"V-component_of_CURRENTS"},"data":[0,0,0,0,0,0,0,0,0,0,0,0,0,0,0,0,0,0,0,0,0,0,0,0,0,0,0,0,0,0,0,0,0,0,0,0,0,0,0,0,0,0,0,0,0,0,0,0,0,0,0,0,0,0,0,0,0,0,-0.0002,-0.0002,0,-0.0043,-0.0044,-0.0045,-0.0071,-0.0071,-0.0071,-0.0071,-0.0118,-0.0119,-0.0121,0,0,0,0,0,0,0,0,0,0,0,0,0,0.0006,0.0006,-0.0002,-0.0002,-0.0003,-0.0043,-0.0044,-0.0045,-0.0071,-0.0071,-0.0071,-0.0071,-0.0118,-0.0119,-0.0121,0,0,0,0,0,0,0,0,0,0,0,0,0,-0.0014,0.0006,-0.0002,-0.002,-0.0022,-0.0043,-0.0044,-0.0045,-0.0071,-0.0071,-0.0071,-0.0071,-0.0117,-0.0119,-0.0121,-0.0131,0,0,-0.0127,-0.0127,0,0,0,0,0,0,0,0,-0.0012,-0.0014,-0.0017,-0.0019,-0.0021,-0.0051,-0.0059,-0.0074,-0.0071,-0.0053,-0.0071,-0.0071,-0.0096,-0.0099,-0.0108,-0.0133,-0.0135,-0.0127,-0.0128,-0.0129,-0.0129,0,0,0,0,0,0,0,-0.0011,-0.0013,-0.002,-0.0017,-0.002,-0.0042,-0.0045,-0.0062,-0.0074,-0.0055,-0.0056,-0.0059,-0.0097,-0.0106,-0.011,-0.0136,-0.0127,-0.0128,-0.0129,-0.013,-0.0163,-0.0163,0,0,0,0,0,0,-0.0001,-0.0011,-0.0018,-0.0021,-0.0016,-0.0042,-0.0045,-0.0042,-0.0074,-0.0079,-0.0059,-0.006,-0.0103,-0.0107,-0.0111,-0.0108,-0.0129,-0.013,-0.0131,-0.0163,-0.0163,-0.0163,0,0,0,0,0,0,-0.0001,-0.0001,-0.0017,-0.0016,-0.002,-0.0042,-0.0039,-0.0043,-0.0049,-0.0077,-0.0082,-0.006,-0.0103,-0.0109,-0.0119,-0.011,-0.0131,-0.0133,-0.0164,-0.0163,-0.0163,-0.0111,0,0,0,0,0,0,-0.0,-0.0,0.0004,-0.0015,-0.0019,-0.002,-0.0039,-0.0044,-0.005,-0.0052,-0.008,-0.0085,-0.0104,-0.0116,-0.0121,-0.0113,-0.0134,-0.0164,-0.0163,-0.0163,-0.0113,-0.0109,-0.0106,0,0,0,0,0,0.0001,0.0012,0.0005,0.0004,-0.0012,-0.0019,-0.0023,-0.0041,-0.005,-0.0048,-0.0067,-0.0084,-0.0117,-0.0117,-0.0123,-0.0115,-0.0164,-0.0164,-0.0163,-0.0115,-0.011,-0.0106,0,0,0,0,0,0,0.0016,0.0009,0.0002,0.001,-0.0001,-0.0023,-0.0024,-0.0036,-0.005,-0.0052,-0.008,-0.0086,-0.0093,-0.0112,-0.0111,-0.0125,-0.0144,-0.0144,-0.0105,-0.0101,-0.0097,-0.0079,-0.0136,0,0,0,0,0,0.0022,0.0029,0.0016,0.0022,0.0019,-0.0002,-0.0008,-0.0019,-0.0034,-0.0041,-0.006,-0.0081,-0.0097,-0.0103,-0.0122,-0.0127,-0.0148,-0.0127,-0.0123,-0.012,-0.0109,-0.0137,-0.0134,-0.0161,-0.0161,-0.0161,0,0,0.0028,0.0026,0.0029,0.0025,0.0014,0.0022,-0.0006,-0.0009,-0.0004,-0.0043,-0.0044,-0.007,-0.0096,-0.0102,-0.0107,-0.0115,-0.0124,-0.0119,-0.0116,-0.0107,-0.0136,-0.0133,-0.0131,-0.0161,-0.0161,-0.0161,0,0,0.005,0.0043,0.0059,0.0055,0.0048,0.0038,0.0041,0.0023,0.0014,0.0008,-0.0018,-0.0035,-0.006,-0.0076,-0.0087,-0.0074,-0.0105,-0.0083,-0.0045,-0.0072,-0.007,-0.0068,-0.0092,-0.0093,-0.0078,-0.0078,-0.0078,0,0.0057,0.0078,0.0061,0.0076,0.0081,0.0052,0.0072,0.0058,0.0038,0.0038,0.0017,-0.0019,-0.0046,-0.0048,-0.0046,-0.0064,-0.0084,-0.0059,-0.0066,-0.0065,-0.0064,-0.0089,-0.0091,-0.0075,-0.0076,-0.0076,-0.0076,0,0.0093,0.0108,0.0117,0.0131,0.0132,0.0142,0.0127,0.0121,0.0104,0.0094,0.0081,0.0039,0.0022,0.0005,-0.0017,-0.0021,-0.0039,-0.006,-0.0075,-0.0058,-0.0086,-0.0088,-0.0072,-0.0073,-0.0073,-0.0074,0,0,0.012,0.0141,0.0144,0.0164,0.0164,0.0173,0.0177,0.0183,0.0199,0.0159,0.0172,0.0128,0.0103,0.0089,0.0052,0.0026,0.0007,-0.0009,-0.0012,-0.0027,-0.005,-0.0063,-0.0068,-0.0017,-0.0017,-0.0017,-0.0071,0,0.0157,0.0203,0.0201,0.0244,0.0269,0.0247,0.0261,0.0257,0.0248,0.0249,0.0196,0.0192,0.0137,0.0129,0.0093,0.0033,0.0003,0.0024,-0.0068,-0.0071,-0.008,-0.007,-0.0057,-0.0104,-0.0074,-0.0075,-0.0075,0,0.0201,0.0228,0.0277,0.0314,0.0322,0.0339,0.0363,0.0374,0.0362,0.0353,0.0331,0.0289,0.0249,0.0193,0.0098,0.0115,0.004,-0.0017,-0.0021,-0.005,-0.0089,-0.0117,-0.0111,-0.0257,-0.0079,-0.0079,-0.0079,0,0.0243,0.0286,0.0331,0.0341,0.037,0.0384,0.0401,0.0406,0.0436,0.0423,0.0436,0.0374,0.0352,0.0248,0.0127,0.0113,0.0017,-0.0018,-0.0102,-0.0104,-0.0119,-0.0121,-0.0258,-0.0089,-0.0089,-0.0089,-0.0088,0,0.0293,0.0329,0.0354,0.0377,0.0437,0.0436,0.05,0.0501,0.0523,0.0579,0.0498,0.0515,0.0364,0.0287,0.016,0.003,0.004,-0.0089,-0.0116,-0.0101,-0.0101,-0.0251,-0.0349,-0.0091,-0.009,-0.009,-0.0089,0,0.0335,0.0348,0.0406,0.0443,0.046,0.0504,0.0572,0.0622,0.0624,0.0688,0.0686,0.0628,0.0533,0.0371,0.0214,0.0089,-0.0138,-0.0101,-0.007,-0.0093,-0.0309,-0.0404,-0.0573,-0.0645,-0.0199,-0.02,-0.02,0,0.0363,0.0395,0.0458,0.0501,0.052,0.0586,0.0639,0.0671,0.0736,0.0767,0.0805,0.0728,0.07,0.0454,0.0223,0.0001,-0.0156,-0.0145,-0.0174,-0.0314,-0.0442,-0.0506,-0.0559,-0.0177,-0.0177,-0.0177,-0.0177,0,0.0418,0.0437,0.0484,0.057,0.0632,0.0715,0.0793,0.0857,0.0907,0.0956,0.1005,0.098,0.0754,0.0546,0.0233,0.0064,-0.0258,-0.0157,-0.0313,-0.0442,-0.0511,-0.0594,-0.015,-0.018,-0.0179,-0.0179,-0.0179,-0.0179,0.0461,0.0504,0.0565,0.0649,0.0726,0.0827,0.0905,0.0998,0.1103,0.1187,0.1161,0.1161,0.0842,0.0424,0.0177,-0.0266,-0.0285,-0.04,-0.0505,-0.0557,-0.0628,-0.0185,-0.024,-0.024,-0.024,-0.024,-0.024,0,0.0516,0.0562,0.0641,0.0738,0.0829,0.086,0.0997,0.1081,0.1211,0.1299,0.1342,0.1181,0.0799,0.0381,-0.0209,-0.0537,-0.0663,-0.0734,-0.0831,-0.0869,-0.0478,-0.0478,-0.0572,-0.0572,-0.0572,-0.0572,-0.0572,-0.0572,0.0545,0.0624,0.066,0.0805,0.0876,0.1,0.108,0.1202,0.1296,0.1377,0.1377,0.1336,0.0978,0.0,-0.0699,-0.0876,-0.1132,-0.1194,-0.1321,-0.1064,-0.1041,-0.1018,-0.104,-0.1251,-0.1252,-0.1645,-0.1649,-0.1653]}],[{"header":{"parameterUnit":"m.s-1","parameterCategory":2,"la1":30.2991,"la2":30.254,"lo1":-89.0895,"lo2":-89.0444,"dy":0.0017,"dx":0.0017,"nx":28,"ny":28,"refTime":"2024-12-02T03:00:00:Z","depth":"2","parameterNumber":2,"parameterNumberName":"U-component_of_CURRENTS"},"data":[0,0,0,0,0,0,0,0,0,0,0,0,0,0,0,0,0,0,0,0,0,0,0,0,0,0,0,0,0,0,0,0,0,0,0,0,0,0,0,0,0,0,0,0,0,0,0,0,0,0,0,0,0,0,0,0,0,0,0.2501,0.2502,0,0.2487,0.2487,0.2486,0.246,0.2459,0.2459,0.2459,0.2434,0.2434,0.2433,0,0,0,0,0,0,0,0,0,0,0,0,0,0.2514,0.2513,0.2501,0.2502,0.2502,0.2487,0.2486,0.2486,0.246,0.2459,0.2459,0.2459,0.2434,0.2434,0.2433,0,0,0,0,0,0,0,0,0,0,0,0,0,0.2502,0.2513,0.2501,0.2488,0.2487,0.2487,0.2486,0.2486,0.246,0.2459,0.2459,0.2459,0.2434,0.2434,0.2433,0.2438,0,0,0.2431,0.2431,0,0,0,0,0,0,0,0,0.2503,0.2501,0.249,0.2489,0.2488,0.2477,0.2482,0.247,0.246,0.2468,0.2459,0.2458,0.2449,0.2447,0.2442,0.2437,0.2436,0.2431,0.2431,0.2431,0.243,0,0,0,0,0,0,0,0.2504,0.2502,0.2493,0.2491,0.2489,0.2486,0.2484,0.2479,0.2459,0.2467,0.2466,0.2468,0.2448,0.2443,0.2441,0.2435,0.2431,0.2431,0.243,0.243,0.2471,0.2472,0,0,0,0,0,0,0.251,0.2503,0.2494,0.2493,0.2497,0.2486,0.2483,0.2479,0.2459,0.2457,0.2468,0.2467,0.2444,0.2442,0.244,0.2474,0.2431,0.243,0.243,0.2469,0.2471,0.2473,0,0,0,0,0,0,0.2511,0.251,0.2494,0.25,0.2498,0.2487,0.2482,0.2479,0.2481,0.2461,0.2457,0.2474,0.2444,0.2441,0.2449,0.2472,0.243,0.2429,0.2468,0.247,0.2472,0.2523,0,0,0,0,0,0,0.2511,0.2509,0.2513,0.25,0.2498,0.2502,0.2482,0.2479,0.2484,0.2481,0.2465,0.2461,0.2443,0.245,0.2448,0.247,0.2429,0.2466,0.2469,0.2471,0.252,0.2527,0.2533,0,0,0,0,0,0.2511,0.2513,0.2513,0.2512,0.2501,0.2503,0.2502,0.2491,0.2484,0.249,0.2482,0.2462,0.2466,0.245,0.2448,0.2471,0.2465,0.2468,0.2471,0.2517,0.2526,0.2533,0,0,0,0,0,0,0.2519,0.2511,0.251,0.2509,0.2512,0.25,0.2504,0.25,0.2497,0.2497,0.2475,0.2472,0.249,0.2476,0.246,0.2493,0.2465,0.2468,0.25,0.2508,0.2515,0.2525,0.2428,0,0,0,0,0,0.2524,0.2523,0.252,0.2522,0.2525,0.2519,0.252,0.2516,0.2511,0.2509,0.2499,0.2495,0.2502,0.2501,0.25,0.2514,0.2519,0.2531,0.2537,0.2543,0.2551,0.2591,0.2602,0.2484,0.2483,0.2483,0,0,0.2526,0.2525,0.2523,0.2525,0.2524,0.2534,0.2518,0.2525,0.2535,0.2508,0.2518,0.2518,0.2512,0.2529,0.2536,0.252,0.2579,0.2547,0.2552,0.2557,0.2596,0.2607,0.2617,0.2486,0.2485,0.2485,0,0,0.2533,0.2532,0.2535,0.2543,0.2551,0.2551,0.2558,0.2556,0.2557,0.257,0.256,0.2577,0.2573,0.258,0.2582,0.2628,0.2616,0.2628,0.2665,0.2704,0.2714,0.2722,0.2741,0.2751,0.2628,0.2628,0.2628,0,0.2539,0.254,0.2539,0.2551,0.256,0.2562,0.2575,0.2581,0.2582,0.2596,0.2581,0.261,0.2601,0.2638,0.2651,0.2643,0.2656,0.2632,0.2712,0.2721,0.273,0.2746,0.2757,0.2631,0.2631,0.2631,0.263,0,0.2548,0.2556,0.2562,0.2576,0.2589,0.2601,0.2613,0.2628,0.2633,0.2643,0.2681,0.2677,0.2697,0.27,0.2685,0.2743,0.273,0.2718,0.2691,0.2745,0.2758,0.2768,0.2635,0.2634,0.2633,0.2633,0,0,0.2538,0.2562,0.2565,0.2574,0.2603,0.2609,0.2643,0.2672,0.2701,0.2714,0.2753,0.2771,0.278,0.2784,0.2779,0.2806,0.2868,0.2787,0.2788,0.2803,0.2946,0.2905,0.2911,0.2872,0.2874,0.2876,0.293,0,0.2546,0.2565,0.2581,0.2605,0.2615,0.2641,0.2672,0.2704,0.2734,0.2774,0.2797,0.2829,0.281,0.2824,0.2855,0.2868,0.2898,0.2854,0.2894,0.2895,0.285,0.2923,0.2649,0.2673,0.294,0.2942,0.2943,0,0.2545,0.2558,0.2579,0.2614,0.2623,0.2644,0.2698,0.2728,0.2797,0.2828,0.2881,0.2895,0.2947,0.2916,0.2982,0.2956,0.2959,0.2962,0.2964,0.2916,0.2873,0.2663,0.2681,0.2959,0.2958,0.2957,0.2956,0,0.2519,0.2555,0.2567,0.2579,0.2624,0.2644,0.2675,0.2743,0.2784,0.2867,0.2909,0.2973,0.3006,0.3035,0.3045,0.3021,0.3109,0.3074,0.3041,0.3037,0.2807,0.278,0.3125,0.3125,0.3125,0.3125,0.3125,0,0.2508,0.2519,0.2554,0.2558,0.2587,0.2628,0.2678,0.2727,0.2813,0.2869,0.2932,0.2988,0.3039,0.3087,0.3085,0.3104,0.3147,0.3068,0.3061,0.2817,0.2792,0.3038,0.3027,0.3127,0.3126,0.3126,0.3126,0,0.2473,0.2496,0.2512,0.2556,0.2571,0.2591,0.267,0.271,0.28,0.2877,0.2906,0.3019,0.3086,0.3123,0.3177,0.3151,0.3169,0.3159,0.2865,0.2825,0.3057,0.3048,0.3132,0.3131,0.3131,0.313,0.313,0,0.2453,0.2457,0.2498,0.2506,0.2524,0.2565,0.2595,0.2691,0.274,0.2887,0.2916,0.3023,0.3076,0.3155,0.3122,0.3122,0.3178,0.2875,0.2784,0.3079,0.3064,0.3056,0.3049,0.2489,0.2483,0.2479,0.2475,0,0.2418,0.2435,0.2448,0.2466,0.2488,0.2517,0.2566,0.2601,0.2714,0.2783,0.2871,0.2929,0.3009,0.2896,0.2921,0.2885,0.2854,0.2784,0.3172,0.2545,0.2481,0.2464,0.2476,0.2434,0.2438,0.2441,0.2443,0.2445,0.2391,0.239,0.2406,0.2416,0.2436,0.2439,0.2435,0.249,0.2543,0.2588,0.2724,0.2709,0.2724,0.2629,0.2546,0.2476,0.2681,0.2531,0.2541,0.2556,0.2488,0.2428,0.2357,0.236,0.2363,0.2366,0.2368,0,0.234,0.2344,0.2352,0.2345,0.2322,0.2368,0.2389,0.2345,0.2342,0.2404,0.2437,0.223,0.2162,0.2181,0.2005,0.2015,0.1955,0.1929,0.1804,0.1848,0.1886,0.1778,0.1461,0.1458,0.1456,0.1453,0,0,0.2313,0.2288,0.2284,0.222,0.2218,0.2142,0.213,0.2077,0.2074,0.2004,0.1963,0.2084,0.2139,0.1776,0.1722,0.1559,0.1694,0.15,0.223,0.2128,0.2163,0.224,0.2127,0,0,0,0,0]},{"header":{"parameterUnit":"m.s-1","parameterCategory":2,"la1":30.2991,"la2":30.254,"lo1":-89.0895,"lo2":-89.0444,"dy":0.0017,"dx":0.0017,"nx":28,"ny":28,"refTime":"2024-12-02T03:00:00:Z","depth":"2","parameterNumber":3,"parameterNumberName":"V-component_of_CURRENTS"},"data":[0,0,0,0,0,0,0,0,0,0,0,0,0,0,0,0,0,0,0,0,0,0,0,0,0,0,0,0,0,0,0,0,0,0,0,0,0,0,0,0,0,0,0,0,0,0,0,0,0,0,0,0,0,0,0,0,0,0,0.0093,0.0093,0,0.0053,0.0053,0.0052,0.0025,0.0025,0.0025,0.0025,-0.0021,-0.0022,-0.0023,0,0,0,0,0,0,0,0,0,0,0,0,0,0.0101,0.0102,0.0093,0.0093,0.0092,0.0053,0.0053,0.0052,0.0025,0.0025,0.0025,0.0025,-0.0021,-0.0022,-0.0024,0,0,0,0,0,0,0,0,0,0,0,0,0,0.0083,0.0102,0.0093,0.0075,0.0073,0.0054,0.0053,0.0052,0.0025,0.0025,0.0025,0.0025,-0.002,-0.0022,-0.0024,-0.003,0,0,-0.0029,-0.003,0,0,0,0,0,0,0,0,0.0084,0.0082,0.0078,0.0076,0.0074,0.0045,0.0039,0.0024,0.0025,0.0042,0.0025,0.0025,0.0001,-0.0003,-0.0011,-0.0032,-0.0034,-0.0029,-0.003,-0.0031,-0.0031,0,0,0,0,0,0,0,0.0085,0.0084,0.0077,0.0077,0.0075,0.0053,0.0051,0.0036,0.0022,0.0041,0.0039,0.0036,-0.0,-0.0009,-0.0012,-0.0035,-0.0029,-0.003,-0.0031,-0.0032,-0.0061,-0.006,0,0,0,0,0,0,0.0094,0.0085,0.0078,0.0075,0.0079,0.0054,0.0051,0.0054,0.0023,0.0018,0.0036,0.0035,-0.0006,-0.001,-0.0014,-0.001,-0.0031,-0.0032,-0.0033,-0.0061,-0.0061,-0.006,0,0,0,0,0,0,0.0095,0.0094,0.0079,0.008,0.0076,0.0054,0.0057,0.0053,0.0046,0.0019,0.0014,0.0034,-0.0006,-0.0011,-0.0021,-0.0013,-0.0033,-0.0034,-0.0061,-0.0061,-0.006,-0.0011,0,0,0,0,0,0,0.0095,0.0095,0.0099,0.0081,0.0077,0.0076,0.0057,0.0052,0.0044,0.0042,0.0016,0.0011,-0.0007,-0.0018,-0.0022,-0.0015,-0.0036,-0.0061,-0.0061,-0.0061,-0.0013,-0.0009,-0.0006,0,0,0,0,0,0.0096,0.0106,0.0099,0.0098,0.0084,0.0076,0.0073,0.0055,0.0045,0.0047,0.0028,0.0012,-0.0018,-0.0019,-0.0024,-0.0017,-0.0062,-0.0061,-0.0061,-0.0015,-0.001,-0.0006,0,0,0,0,0,0,0.011,0.0104,0.0096,0.0103,0.0093,0.0072,0.0071,0.0059,0.0045,0.0042,0.0016,0.0011,0.0003,-0.0014,-0.0014,-0.0025,-0.0043,-0.0044,-0.0007,-0.0003,0.0001,0.0018,-0.0037,0,0,0,0,0,0.0116,0.0123,0.011,0.0115,0.0112,0.0092,0.0085,0.0075,0.006,0.0053,0.0034,0.0015,0.0001,-0.0005,-0.0023,-0.0026,-0.0047,-0.0026,-0.0022,-0.0019,-0.0009,-0.0036,-0.0033,-0.0059,-0.0059,-0.0059,0,0,0.0121,0.0119,0.0122,0.0118,0.0107,0.0115,0.0087,0.0083,0.0089,0.0051,0.005,0.0026,0.0002,-0.0003,-0.0008,-0.0015,-0.0024,-0.0018,-0.0015,-0.0007,-0.0035,-0.0032,-0.003,-0.0058,-0.0058,-0.0058,0,0,0.0141,0.0135,0.015,0.0147,0.0138,0.013,0.0132,0.0114,0.0105,0.01,0.0074,0.0058,0.0035,0.0022,0.0012,0.0026,-0.0006,0.0017,0.0053,0.0027,0.0029,0.003,0.0005,0.0004,0.0022,0.0022,0.0022,0,0.0147,0.0168,0.0152,0.0166,0.0171,0.0142,0.0161,0.0148,0.0129,0.0129,0.0107,0.0075,0.0049,0.005,0.0052,0.0035,0.0014,0.0039,0.0032,0.0033,0.0034,0.0007,0.0005,0.0024,0.0024,0.0024,0.0023,0,0.0183,0.0197,0.0205,0.0218,0.022,0.0229,0.0216,0.0209,0.0192,0.0183,0.0171,0.013,0.0115,0.0099,0.0079,0.0076,0.0057,0.0038,0.0024,0.004,0.001,0.0007,0.0028,0.0027,0.0026,0.0025,0,0,0.0206,0.0227,0.023,0.025,0.025,0.0259,0.0264,0.027,0.0286,0.0247,0.0259,0.0218,0.0193,0.018,0.0146,0.012,0.01,0.0086,0.0083,0.0066,0.0042,0.0026,0.002,0.0078,0.0078,0.0078,0.0019,0,0.0241,0.0286,0.0285,0.0327,0.0352,0.0331,0.0345,0.0343,0.0333,0.0334,0.0283,0.028,0.0226,0.0218,0.0184,0.0126,0.0095,0.0118,0.0025,0.0023,0.001,0.0018,0.0044,-0.0006,0.0016,0.0015,0.0015,0,0.0283,0.0309,0.0357,0.0394,0.0403,0.0419,0.0444,0.0455,0.0444,0.0435,0.0413,0.0373,0.0333,0.0279,0.0186,0.0203,0.0129,0.0074,0.007,0.0038,0.0001,-0.0019,-0.0013,0.001,0.001,0.0011,0.0011,0,0.0322,0.0364,0.0408,0.0419,0.0448,0.0462,0.0479,0.0486,0.0515,0.0502,0.0513,0.0454,0.043,0.033,0.021,0.0198,0.0101,0.007,-0.0016,-0.0019,-0.0022,-0.0024,-0.0001,-0.0001,-0.0001,-0.0,-0.0,0,0.0368,0.0403,0.0429,0.0452,0.051,0.0511,0.0574,0.0575,0.0597,0.0651,0.0572,0.0588,0.0442,0.0365,0.024,0.011,0.0122,-0.0005,-0.0033,-0.0005,-0.0005,-0.0011,-0.0011,-0.0003,-0.0002,-0.0002,-0.0001,0,0.0407,0.042,0.0478,0.0515,0.0531,0.0575,0.0642,0.0692,0.0693,0.0754,0.0752,0.0694,0.0598,0.0441,0.0286,0.0164,0.003,-0.0023,0.0019,-0.0002,-0.0083,-0.008,-0.0123,-0.0124,-0.0125,-0.0126,-0.0126,0,0.0433,0.0464,0.0527,0.0568,0.0587,0.0652,0.0705,0.0738,0.0801,0.0829,0.0864,0.0785,0.0753,0.051,0.0287,0.0069,0.0033,-0.0062,-0.0084,-0.0072,-0.0094,-0.009,-0.0086,-0.0073,-0.0073,-0.0073,-0.0073,0,0.0485,0.0503,0.055,0.0633,0.0695,0.0778,0.0853,0.0916,0.0965,0.1008,0.105,0.1021,0.0798,0.0589,0.0282,0.0133,-0.0027,-0.0071,-0.0065,-0.0043,-0.0028,-0.0049,-0.0046,-0.0074,-0.0074,-0.0074,-0.0074,-0.0073,0.0525,0.0568,0.0627,0.0709,0.0784,0.0884,0.0961,0.1047,0.1146,0.1207,0.1184,0.1134,0.0901,0.0511,0.0255,-0.0028,-0.0018,-0.0125,-0.0123,-0.0121,-0.0103,-0.009,-0.0143,-0.0144,-0.0144,-0.0144,-0.0144,0,0.0578,0.0622,0.07,0.0795,0.0884,0.0915,0.1049,0.1123,0.124,0.1279,0.1302,0.108,0.0842,0.0557,0.0147,-0.009,-0.0106,-0.0173,-0.0138,-0.0135,-0.0133,-0.0114,-0.0158,-0.0159,-0.016,-0.0161,0,0,0.0606,0.0683,0.0719,0.0859,0.0928,0.105,0.1128,0.1229,0.1283,0.1324,0.129,0.1233,0.0907,0.0612,0.0297,0.0061,0.0011,0.0012,0.005,0.0131,0.0136,-0.0078,-0.0042,0,0,0,0,0]}],[{"header":{"parameterUnit":"m.s-1","parameterCategory":2,"la1":30.2991,"la2":30.254,"lo1":-89.0895,"lo2":-89.0444,"dy":0.0017,"dx":0.0017,"nx":28,"ny":28,"refTime":"2024-12-02T03:00:00:Z","depth":"4","parameterNumber":2,"parameterNumberName":"U-component_of_CURRENTS"},"data":[0,0,0,0,0,0,0,0,0,0,0,0,0,0,0,0,0,0,0,0,0,0,0,0,0,0,0,0,0,0,0,0,0,0,0,0,0,0,0,0,0,0,0,0,0,0,0,0,0,0,0,0,0,0,0,0,0,0,0.1605,0.1605,0,0.1649,0.1649,0.165,0.169,0.1691,0.1692,0.1692,0.1745,0.1745,0.1746,0,0,0,0,0,0,0,0,0,0,0,0,0,0.1545,0.1546,0.1605,0.1605,0.1606,0.1649,0.1649,0.165,0.169,0.1691,0.1692,0.1693,0.1744,0.1745,0.1746,0,0,0,0,0,0,0,0,0,0,0,0,0,0.1576,0.1546,0.1605,0.1633,0.1636,0.1649,0.1649,0.165,0.169,0.1691,0.1692,0.1693,0.1744,0.1745,0.1746,0.1732,0,0,0.175,0.175,0,0,0,0,0,0,0,0,0.1575,0.1578,0.1628,0.1631,0.1635,0.1667,0.1648,0.1679,0.169,0.1667,0.1692,0.1694,0.172,0.1723,0.1726,0.1735,0.1737,0.175,0.175,0.1751,0.1751,0,0,0,0,0,0,0,0.1572,0.1577,0.162,0.1629,0.1633,0.1641,0.1646,0.1654,0.1686,0.1669,0.1673,0.1681,0.1722,0.1725,0.1728,0.1738,0.175,0.1751,0.1751,0.1752,0.1846,0.1848,0,0,0,0,0,0,0.1571,0.1575,0.1619,0.1622,0.1609,0.1641,0.1647,0.1654,0.1686,0.1692,0.168,0.1683,0.1722,0.1726,0.173,0.181,0.1751,0.1752,0.1753,0.1844,0.1846,0.1848,0,0,0,0,0,0,0.1569,0.1574,0.1617,0.1601,0.1607,0.1641,0.1649,0.1654,0.1694,0.1694,0.1701,0.1718,0.1723,0.1728,0.1772,0.1809,0.1752,0.1754,0.1842,0.1845,0.1847,0.1909,0,0,0,0,0,0,0.1567,0.1573,0.1595,0.1601,0.1608,0.1647,0.1648,0.1654,0.1696,0.1701,0.1728,0.1732,0.1725,0.177,0.1773,0.1809,0.1754,0.184,0.1843,0.1846,0.1905,0.1914,0.1922,0,0,0,0,0,0.1565,0.1583,0.1596,0.1603,0.1631,0.1649,0.1654,0.1679,0.1697,0.1718,0.1743,0.1733,0.1794,0.1772,0.1775,0.1813,0.1838,0.1842,0.1846,0.1901,0.1912,0.1921,0,0,0,0,0,0,0.1569,0.1589,0.1603,0.1628,0.165,0.1657,0.1685,0.17,0.1735,0.1753,0.1752,0.1758,0.181,0.1804,0.1781,0.1851,0.1816,0.1821,0.1857,0.1867,0.1875,0.1877,0.1755,0,0,0,0,0,0.158,0.1602,0.1618,0.1643,0.1658,0.1679,0.1698,0.1715,0.1738,0.1756,0.1776,0.18,0.1822,0.1841,0.1856,0.1891,0.189,0.192,0.1928,0.1935,0.194,0.1973,0.1985,0.1862,0.1862,0.1862,0,0,0.1589,0.1605,0.1619,0.1648,0.1669,0.1692,0.1694,0.1732,0.176,0.1755,0.1814,0.1832,0.1839,0.1882,0.1905,0.1886,0.197,0.194,0.1946,0.1947,0.1979,0.199,0.2001,0.1865,0.1864,0.1864,0,0,0.1606,0.1635,0.1657,0.1679,0.1718,0.1728,0.1748,0.1778,0.1807,0.1854,0.1863,0.1906,0.1939,0.1952,0.1961,0.2024,0.2013,0.2037,0.208,0.2113,0.2123,0.2132,0.2147,0.2157,0.204,0.2041,0.2041,0,0.1622,0.1647,0.1668,0.1694,0.1719,0.1749,0.1777,0.1805,0.1849,0.1878,0.1886,0.196,0.1969,0.2018,0.2043,0.2043,0.2055,0.2039,0.2123,0.2132,0.214,0.2153,0.2163,0.2044,0.2044,0.2043,0.2043,0,0.1641,0.1678,0.1696,0.1737,0.1766,0.1799,0.1833,0.1877,0.1918,0.1944,0.2018,0.2038,0.2082,0.2095,0.2089,0.2156,0.2144,0.2129,0.2095,0.2156,0.2166,0.2175,0.2049,0.2048,0.2047,0.2046,0,0,0.1631,0.1696,0.1708,0.1735,0.1795,0.1813,0.1874,0.1927,0.1976,0.2031,0.2091,0.2141,0.2168,0.218,0.2187,0.2216,0.2283,0.2205,0.2205,0.2214,0.2354,0.2198,0.2193,0.2288,0.229,0.2292,0.2338,0,0.1645,0.1694,0.1728,0.1784,0.181,0.1863,0.1912,0.197,0.2027,0.2093,0.2136,0.2197,0.2194,0.223,0.2263,0.228,0.231,0.2271,0.2298,0.2298,0.2148,0.2199,0.2298,0.2345,0.2347,0.2348,0.2349,0,0.1645,0.168,0.1736,0.1806,0.1825,0.187,0.1959,0.2009,0.2102,0.2153,0.2227,0.2261,0.233,0.2312,0.2382,0.2362,0.237,0.2373,0.2374,0.2211,0.2159,0.2272,0.2365,0.2364,0.2363,0.2362,0.2361,0,0.1605,0.1682,0.1728,0.1753,0.1838,0.1887,0.1942,0.2036,0.209,0.2203,0.2255,0.2336,0.2388,0.242,0.244,0.2425,0.2498,0.247,0.2336,0.2325,0.2423,0.2413,0.2517,0.2516,0.2516,0.2516,0.2516,0,0.1581,0.1623,0.1721,0.1743,0.1809,0.1878,0.1963,0.2032,0.2138,0.2198,0.2291,0.2339,0.2422,0.2467,0.247,0.2429,0.2527,0.2348,0.2328,0.2448,0.2441,0.2429,0.2418,0.2518,0.2518,0.2517,0.2517,0,0.1524,0.1589,0.1647,0.1752,0.1791,0.1842,0.1969,0.2019,0.2136,0.2217,0.2258,0.237,0.2421,0.2472,0.2523,0.2449,0.2434,0.2395,0.2526,0.2513,0.2231,0.2223,0.2239,0.2233,0.2229,0.2226,0.2223,0,0.1492,0.1519,0.1642,0.1681,0.1737,0.1827,0.1881,0.2008,0.2057,0.221,0.2226,0.233,0.2383,0.2323,0.2398,0.2389,0.2359,0.2333,0.227,0.2224,0.2204,0.2203,0.2201,0.2216,0.2215,0.2213,0.2212,0,0.1433,0.1498,0.1547,0.1625,0.1693,0.1752,0.1839,0.186,0.1992,0.212,0.2132,0.2148,0.2198,0.222,0.2232,0.2223,0.2337,0.2287,0.2295,0.2236,0.2197,0.2181,0.2184,0.2197,0.22,0.2201,0.2202,0,0.1398,0.1418,0.1493,0.1548,0.1626,0.164,0.1702,0.1741,0.18,0.1954,0.1959,0.2061,0.2173,0.2136,0.2151,0.2126,0.2085,0.2001,0.2023,0.2041,0.1953,0.1873,0.176,0,0,0,0,0,0.1349,0.1355,0.1402,0.1445,0.1515,0.1556,0.1651,0.1711,0.1836,0.1789,0.1864,0.1894,0.1903,0.1965,0.1898,0.2072,0.2103,0.1985,0.2021,0.2115,0.2132,0.2047,0,0,0,0,0,0,0.1313,0.1357,0.1364,0.1345,0.1353,0.1406,0.1459,0.1546,0.1522,0.1658,0.1672,0.1776,0.1817,0.1918,0.1861,0.1879,0.1859,0.2058,0.2052,0.2105,0.2121,0.2134,0.2053,0,0,0,0,0]},{"header":{"parameterUnit":"m.s-1","parameterCategory":2,"la1":30.2991,"la2":30.254,"lo1":-89.0895,"lo2":-89.0444,"dy":0.0017,"dx":0.0017,"nx":28,"ny":28,"refTime":"2024-12-02T03:00:00:Z","depth":"4","parameterNumber":3,"parameterNumberName":"V-component_of_CURRENTS"},"data":[0,0,0,0,0,0,0,0,0,0,0,0,0,0,0,0,0,0,0,0,0,0,0,0,0,0,0,0,0,0,0,0,0,0,0,0,0,0,0,0,0,0,0,0,0,0,0,0,0,0,0,0,0,0,0,0,0,0,0.0203,0.0202,0,0.018,0.018,0.0179,0.0166,0.0166,0.0166,0.0166,0.0141,0.014,0.0139,0,0,0,0,0,0,0,0,0,0,0,0,0,0.0204,0.0204,0.0203,0.0202,0.0202,0.018,0.018,0.0179,0.0166,0.0166,0.0166,0.0166,0.0141,0.014,0.0139,0,0,0,0,0,0,0,0,0,0,0,0,0,0.0195,0.0204,0.0203,0.0193,0.0192,0.018,0.018,0.0179,0.0166,0.0166,0.0166,0.0166,0.0141,0.014,0.0139,0.0134,0,0,0.0136,0.0136,0,0,0,0,0,0,0,0,0.0195,0.0194,0.0195,0.0194,0.0192,0.0176,0.0171,0.0164,0.0166,0.0176,0.0166,0.0166,0.0152,0.015,0.0146,0.0133,0.0132,0.0136,0.0136,0.0135,0.0135,0,0,0,0,0,0,0,0.0196,0.0195,0.0193,0.0194,0.0193,0.0179,0.0178,0.0169,0.0164,0.0175,0.0174,0.0172,0.0152,0.0147,0.0145,0.0132,0.0136,0.0135,0.0135,0.0134,0.012,0.0121,0,0,0,0,0,0,0.0201,0.0196,0.0194,0.0193,0.0194,0.018,0.0178,0.0181,0.0164,0.0162,0.0172,0.0171,0.0149,0.0146,0.0144,0.0152,0.0135,0.0134,0.0134,0.012,0.012,0.0121,0,0,0,0,0,0,0.0201,0.0201,0.0195,0.0194,0.0192,0.018,0.0183,0.0181,0.0179,0.0162,0.016,0.0173,0.0149,0.0146,0.0143,0.0151,0.0134,0.0133,0.012,0.012,0.0121,0.0158,0,0,0,0,0,0,0.0201,0.0201,0.0206,0.0194,0.0192,0.0194,0.0183,0.018,0.0177,0.0176,0.0162,0.0159,0.0148,0.0144,0.0142,0.0149,0.0132,0.012,0.012,0.012,0.0157,0.016,0.0162,0,0,0,0,0,0.0201,0.021,0.0207,0.0206,0.0199,0.0194,0.0192,0.0183,0.0178,0.018,0.0171,0.016,0.0145,0.0144,0.0141,0.0148,0.012,0.012,0.012,0.0155,0.0159,0.0162,0,0,0,0,0,0,0.0212,0.0209,0.0205,0.0212,0.0206,0.0192,0.0193,0.0186,0.018,0.018,0.0164,0.0161,0.016,0.0148,0.0147,0.0144,0.013,0.013,0.0157,0.0161,0.0164,0.0175,0.0131,0,0,0,0,0,0.0217,0.0224,0.0215,0.0221,0.0219,0.0207,0.0204,0.0197,0.0189,0.0187,0.0176,0.0165,0.0158,0.0156,0.0146,0.0146,0.0126,0.0148,0.015,0.0153,0.016,0.0135,0.0136,0.0122,0.0122,0.0122,0,0,0.0222,0.0221,0.0225,0.0223,0.0217,0.0224,0.0205,0.0204,0.0209,0.0185,0.019,0.0174,0.016,0.016,0.0158,0.0153,0.0145,0.0154,0.0156,0.0161,0.0135,0.0137,0.0138,0.0123,0.0123,0.0123,0,0,0.0237,0.0236,0.0247,0.0245,0.0241,0.0236,0.0238,0.0227,0.0223,0.0223,0.0207,0.0198,0.0187,0.0179,0.0174,0.0186,0.0159,0.0182,0.0208,0.0184,0.0185,0.0186,0.0157,0.0155,0.0185,0.0185,0.0185,0,0.0243,0.0259,0.0248,0.0258,0.0264,0.0245,0.026,0.0253,0.0242,0.0245,0.023,0.0213,0.0197,0.0201,0.0205,0.0193,0.0173,0.0198,0.0188,0.0188,0.0188,0.0159,0.0156,0.0187,0.0187,0.0187,0.0187,0,0.0266,0.0279,0.0285,0.0297,0.03,0.0308,0.0301,0.0299,0.029,0.0285,0.0281,0.0254,0.0247,0.0237,0.0225,0.0222,0.0205,0.0193,0.0181,0.0192,0.016,0.0156,0.019,0.0189,0.0189,0.0188,0,0,0.0281,0.03,0.0303,0.032,0.0323,0.0331,0.0338,0.0346,0.036,0.0335,0.0345,0.0322,0.0305,0.0298,0.0275,0.0253,0.023,0.0228,0.0225,0.0202,0.0172,0.0154,0.0148,0.0215,0.0215,0.0215,0.0148,0,0.0305,0.0338,0.034,0.0375,0.0393,0.0384,0.0398,0.04,0.0396,0.0399,0.0364,0.0366,0.033,0.0327,0.0298,0.0251,0.0223,0.0249,0.0163,0.016,0.0145,0.0144,0.0214,0.0145,0.0144,0.0144,0.0143,0,0.0331,0.0351,0.039,0.0424,0.0431,0.0449,0.0473,0.0485,0.0481,0.0476,0.0462,0.0434,0.0403,0.0366,0.0286,0.0304,0.0244,0.0198,0.0194,0.0163,0.0135,0.0132,0.0136,0.0137,0.0137,0.0138,0.0138,0,0.0353,0.0389,0.0425,0.0435,0.0465,0.0482,0.05,0.0511,0.0535,0.0529,0.0538,0.0491,0.0472,0.039,0.0293,0.029,0.0195,0.0178,0.0101,0.0098,0.0118,0.0118,0.0115,0.0115,0.0115,0.0116,0.0116,0,0.0379,0.0409,0.044,0.0459,0.051,0.0518,0.0573,0.0578,0.0598,0.0635,0.0585,0.0587,0.0478,0.0408,0.031,0.0195,0.0205,0.0106,0.0082,0.0134,0.0137,0.0115,0.0116,0.0113,0.0114,0.0114,0.0115,0,0.0397,0.0415,0.0463,0.0504,0.0522,0.0561,0.0626,0.0665,0.0674,0.0713,0.0713,0.0661,0.0572,0.0451,0.0318,0.0226,0.0113,0.0067,0.0133,0.0113,0.0025,0.0029,-0.0024,-0.0025,-0.0026,-0.0027,-0.0028,0,0.0408,0.0434,0.0498,0.0534,0.0556,0.0618,0.0664,0.07,0.0743,0.0758,0.0773,0.0704,0.065,0.045,0.0317,0.0124,0.0092,0.0024,0.0022,0.003,0.0012,0.0017,0.0022,-0.0029,-0.0029,-0.003,-0.003,0,0.0432,0.0457,0.0496,0.057,0.0627,0.0698,0.0761,0.0794,0.0834,0.0844,0.0821,0.0717,0.0614,0.0454,0.0304,0.0164,0.0064,0.0013,0.0014,0.0012,0.0023,0.0007,0.0013,-0.0033,-0.0033,-0.0033,-0.0032,0,0.0453,0.0485,0.0538,0.0604,0.0679,0.0747,0.0784,0.0826,0.0863,0.0869,0.0861,0.0745,0.0684,0.0475,0.0337,0.0197,0.0155,0.0097,0.0092,0.0094,0.0144,0.0177,0.0149,0,0,0,0,0,0.0472,0.0507,0.0569,0.064,0.0715,0.0759,0.0835,0.0865,0.0898,0.0888,0.0875,0.0776,0.0573,0.0491,0.0348,0.0308,0.0125,0.0133,0.0054,-0.0052,-0.0048,-0.0012,0,0,0,0,0,0,0.0483,0.054,0.0567,0.0656,0.0709,0.0795,0.0845,0.087,0.0862,0.087,0.077,0.0724,0.0533,0.0657,0.0341,0.0299,0.0224,0.0045,0.0041,-0.0054,-0.0051,-0.0048,-0.001,0,0,0,0,0]}]]